This is the latest recevied weather packets stored in our database for station/object KB7K. If no packets are shown the sender has not sent any weather packets the latest 10 day(s).
| Time | Temp. | Humidity | Pressure | Rain* | Wind** | Luminosity | Snow |
|---|---|---|---|---|---|---|---|
| 1787955833 | 26.67° C | 34% | 982.9 hPa | 1.02 mm | - | - | - |
| 1787954829 | 26.67° C | 34% | 982.6 hPa | 1.02 mm | - | - | - |
| 1787953826 | 26.11° C | 34% | 982.7 hPa | 0.76 mm | - | - | - |
| 1787952823 | 26.11° C | 34% | 982.7 hPa | 0.76 mm | - | - | - |
| 1787951820 | 26.11° C | 32% | 983.2 hPa | 0.76 mm | - | - | - |
| 1787950817 | 26.67° C | 31% | 983.1 hPa | 0.25 mm | - | - | - |
| 1787949814 | 27.22° C | 30% | 982.9 hPa | 0.25 mm | - | - | - |
| 1787948811 | 27.22° C | 30% | 983.1 hPa | 0.25 mm | - | - | - |
| 1787947808 | 27.78° C | 28% | 983.3 hPa | 0.25 mm | - | - | - |
| 1787946805 | 28.33° C | 28% | 983.1 hPa | 0 mm | - | - | - |
| 1787946698 | 28.33° C | 27% | 983 hPa | 0 mm | - | - | - |
| 1787944786 | 29.44° C | 28% | 984.4 hPa | 0 mm | - | - | - |
| 1787943783 | 29.44° C | 29% | 984.1 hPa | 0 mm | - | - | - |
| 1787941777 | 27.78° C | 31% | 984.2 hPa | 0 mm | - | - | - |
| 1787940774 | 26.67° C | 31% | 984.2 hPa | 0 mm | - | - | - |
| 1787940054 | 25.56° C | 32% | 984.2 hPa | 0 mm | - | - | - |
| 1787939051 | 25° C | 33% | 984.4 hPa | 0 mm | - | - | - |
| 1787938048 | 24.44° C | 33% | 984.4 hPa | 0 mm | - | - | - |
| 1787937045 | 23.33° C | 34% | 984.5 hPa | 0 mm | - | - | - |
| 1787936041 | 23.33° C | 34% | 984.6 hPa | 0 mm | - | - | - |
| 1787935038 | 23.33° C | 34% | 984.8 hPa | 0 mm | - | - | - |
| 1787934035 | 23.33° C | 33% | 986.9 hPa | 0 mm | - | - | - |
| 1787933569 | 23.33° C | 34% | 986.6 hPa | 0 mm | - | - | - |
| 1787932566 | 22.78° C | 34% | 985.4 hPa | 0 mm | - | - | - |
| 1787931563 | 22.22° C | 35% | 984.5 hPa | 0 mm | - | - | - |
* Rain since midnight (hover to see other rain measurements)
** Current wind speed in m/s (hover to see current wind gust speed)